Home   Weather   Hellesøy   Past weeks
Flag for Norway

Past Weather in Hellesøy, Norway — Yesterday and Last 2 Weeks

Now
46 °F

Passing clouds.


Feels Like: 42 °F
Forecast: 51 / 48 °F
Wind: 9 mph from North

Location: Bergen / Flesland

Current Time: Sep 18, 2019 at 10:02:24 pm

Latest Report: Sep 18, 2019 at 9:20 pm


Visibility: N/A

Pressure: 30.30 "Hg

Humidity: 71%

Dew Point: 37 °F

Location of HellesøyLocation

Past Weather in Hellesøy — Graph

°F

Hellesøy Temperature Yesterday

Maximum temperature yesterday: 52 °F (at 5:20 pm)
Minimum temperature yesterday: 41 °F (at 4:50 am)
Average temperature yesterday: 46 °F

High & Low Weather Summary for the Past Weeks

 TemperatureHumidityPressure
High64 °F (Sep 10, 2:20 pm)100% (Sep 4, 7:50 am)30.30 "Hg (Sep 4, 7:50 am)
Low41 °F (Sep 17, 4:50 am)55% (Sep 7, 3:20 pm)29.50 "Hg (Sep 15, 10:20 am)
Average52 °F81%29.90 "Hg
* Reported Sep 3 8:20 pm — Sep 18 8:50 pm, Hellesøy. Weather by CustomWeather, © 2019

Note: Actual official high and low records may vary slightly from our data, if they occured in-between our weather recording intervals... More about our weather records

Advertising

Hellesøy Weather History for the Previous 24 Hours

Scroll right to see more
 ConditionsComfort  
Time TempWeatherWind HumidityBarometerVisibility
8:50 pm
Wed, Sep 18
46 °FPassing clouds.8 mph71%30.30 "HgN/A
8:20 pm46 °FPassing clouds.9 mph71%30.27 "HgN/A
7:50 pm48 °FPassing clouds.10 mph76%30.27 "HgN/A
7:20 pm50 °FScattered showers. Passing clouds.12 mph71%30.27 "HgN/A
6:50 pm50 °FScattered clouds.9 mph71%30.27 "HgN/A
6:20 pm50 °FPassing clouds.13 mph67%30.27 "HgN/A
5:50 pm50 °FSprinkles. Scattered clouds.9 mph71%30.27 "HgN/A
5:20 pm50 °FBroken clouds.17 mph67%30.24 "HgN/A
4:50 pm50 °FScattered clouds.12 mph67%30.24 "HgN/A
4:20 pm52 °FScattered clouds.13 mph67%30.24 "HgN/A
3:50 pm52 °FScattered clouds.14 mph72%30.24 "HgN/A
3:20 pm52 °FPassing clouds.13 mph67%30.24 "HgN/A
2:50 pm50 °FScattered clouds.12 mph71%30.24 "HgN/A
2:20 pm52 °FScattered clouds.14 mph62%30.24 "HgN/A
1:50 pm52 °FScattered clouds.9 mph67%30.21 "HgN/A
1:20 pm48 °FScattered showers. Scattered clouds.9 mph76%30.21 "HgN/A
12:50 pm50 °FSprinkles. Broken clouds.9 mph82%30.21 "HgN/A
12:20 pm48 °FSprinkles. Broken clouds.15 mph76%30.21 "HgN/A
11:50 am52 °FScattered showers. Scattered clouds.10 mph67%30.21 "HgN/A
11:20 am50 °FPassing clouds.10 mph76%30.18 "HgN/A
10:50 am50 °FPassing clouds.10 mph76%30.18 "HgN/A
10:20 am48 °FPassing clouds.9 mph82%30.18 "HgN/A
9:50 am48 °FScattered clouds.6 mph87%30.18 "HgN/A
9:20 am46 °FScattered showers. Scattered clouds.5 mph93%30.15 "HgN/A
8:50 am46 °FScattered clouds.3 mph93%30.15 "HgN/A
8:20 am46 °FScattered showers. Partly sunny.3 mph93%30.15 "HgN/A
7:50 am45 °FSprinkles. Partly sunny.3 mph100%30.15 "HgN/A
7:20 am45 °FScattered showers. Partly sunny.6 mph93%30.12 "HgN/A
6:50 am45 °FSprinkles. Partly cloudy.7 mph93%30.12 "HgN/A
6:20 am45 °FSprinkles. Partly cloudy.6 mph93%30.12 "HgN/A
5:50 am45 °FPassing clouds.6 mph93%30.12 "HgN/A
4:50 am46 °FLight rain. Partly cloudy.5 mph87%30.09 "HgN/A
3:50 am45 °FLight rain. Partly cloudy.3 mph93%30.09 "HgN/A
2:50 am45 °FLight rain. Passing clouds.3 mph87%30.12 "HgN/A
1:50 am45 °FPartly cloudy.6 mph81%30.09 "HgN/A
12:50 am46 °FLight rain. Partly cloudy.8 mph76%30.09 "HgN/A
11:50 pm
Tue, Sep 17
45 °FPassing clouds.7 mph87%30.09 "HgN/A
11:20 pm46 °FSprinkles. Partly cloudy.13 mph82%30.09 "HgN/A
10:50 pm46 °FSprinkles. Partly cloudy.13 mph82%30.09 "HgN/A
10:20 pm46 °FScattered showers. Partly cloudy.10 mph82%30.09 "HgN/A
Weather by CustomWeather, © 2019

See weather overview